星链-33996 (STARLINK-33996)

导读 | 豆包AI

STARLINK-33996是美国SpaceX公司星链(Starlink)项目的第二代低轨通信卫星,于2025年5月13日发射入轨。作为全球最大卫星星座的组成部分,它配备激光星间链路与先进相控阵天线,可实现100Gbps通信带宽,服务全球高速宽带互联网接入,尤其支持偏远地区及手机直连场景,强化了星链网络的覆盖范围与传输可靠性。

Basic Information
目录编号:
63944
目录名称:
STARLINK-33996
国际标识:
2025-098U
轨道中心:
EARTH
卫星名称:
星链-33996
卫星全名:
星链-33996 (STARLINK-33996)
卫星状态:
在轨 (已飞行351 天)
发射日期:
2025-05-13 UTC
国别 :
美国 (US)
星等 :
--
Orbit Information
数据来源 国际轨道数据 AOE轨道数据
星历时间 2026-04-29T20:20:15+0800
8小时前
查看轨道信息
2026-04-24T01:00:00+0800
6天前
查看轨道信息
半长轴 6950.178km 6950.256km
偏心率 0.0003981 0.000323
轨道倾角 70.000° 69.991°
近地点辐角 268.736° 284.131°
升交点赤经 146.384° 161.025°
平近点角 91.334° 88.797°
近地点 569.274km 569.874km
远地点 574.808km 574.364km
周期 96.107分钟 96.108分钟
每日圈数 14.983349 14.983097
Detailed Information
固有亮度:
5
最大亮度:
2.5
卫星平台:
Starlink V1.0
覆盖范围:
全球
运营商:
太空探索技术公司
运营商所在国:
美国
制造商(研发单位):
太空探索技术公司
制造商所在国:
美国
使用方式:
暂无
Satellite Introduction
Starlink 计划是 SpaceX 推出的全球卫星互联网项目,通过发射低轨道卫星,为全球尤其是偏远地区提供高速、低延迟的互联网服务。自 2019 年起,Starlink 已部署数千颗卫星,旨在缩小全球数字鸿沟,推动互联网普及。该项目还为军事、航空等行业提供通信支持,带来广泛经济效益。
2D Orbit Map
3D Orbit Map
Orbit Altitude Analysis Chart
Orbit Inclination Analysis Chart
Orbit Comprehensive Analysis Chart
View Comprehensive Chart